Location: Barcelona
(41.3829°N, 2.1774°E)
Time: 20:24:06
(UTC+00:00)

ISS - Pass Details

Date: 09 July 2025
Orbit: 413 x 417 km, 51.6° (Epoch: 13 July)

Event Time Altitude Azimuth Distance (km) Brightness Sun altitude
Rises 23:59:43 0° 300° (WNW) 2,355 0.4 -26.3°
Reaches altitude 10° 00:02:34 10° 327° (NNW) 1,493 -0.3 -26.3°
Maximum altitude 00:04:28 14° 1° (N) 1,264 -0.4 -26.2°
Drops below altitude 10° 00:06:22 10° 36° (NE) 1,494 -0.3 -26.2°
Sets 00:09:13 0° 63° (ENE) 2,358 0.5 -26.2°
